Вернуться в каталог

FOSSASAT2E21

АктивенСвязьSSO
NORAD 64536·PAYLOAD·🇪🇸 Spain

Запущен Jun 23, 2025 с Vandenberg Space Force Base

Loading…

Ближайшие Пролёты (ближайшие 24 часа)

TLE

СвежийSource: Space-Track

Эпоха: Sep 14, 2026, 03:21 UTC

1 64536U 25135J   26257.14009103  .00002285  00000-0  10816-3 0  9996
2 64536  97.4720  10.5763 0003035 217.0258 143.0769 15.20366918 68334

Отслеживайте FOSSASAT2E21 в реальном времени с AllMySat

Download on the App Store